Regional Weather Roundup
Issued by NWS Upton, NY

Home | Current Version | Previous Version | Text Only | Print | Product List | Glossary On
Versions: 1 2 3 4 5 6 7 8 9 10 11 12 13 14 15 16 17 18 19 20 21 22 23 24 25 26 27 28 29 30 31 32 33 34 35 36 37 38 39 40 41 42 43 44 45 46 47 48 49 50
000
ASUS41 KOKX 230305
RWROKX
REGIONAL WEATHER ROUNDUP
NATIONAL WEATHER SERVICE NEW YORK NY
1100 PM EDT MON SEP 22 2014

NOTE: "FAIR" INDICATES FEW OR NO CLOUDS BELOW 12,000 FEET WITH NO
SIGNIFICANT WEATHER AND/OR OBSTRUCTIONS TO VISIBILITY.

NYZ071-072-176-178-NJZ106-104-230400-
NEW YORK CITY METRO AREA


CITY           SKY/WX    TMP DP  RH WIND       PRES   REMARKS
CENTRAL PARK   CLEAR     57  38  48 VRB6      30.19R
LAGUARDIA APRT PTCLDY    58  40  51 NW14      30.15R
KENNEDY INTL   MOCLDY    58  37  45 NW16G25   30.16R
NEWARK/LIBERTY PTCLDY    58  39  49 NW8       30.17R
BRNX BOT. GARD   N/A     55  37  50 NW3       30.16S
TETERBORO      CLEAR     56  38  50 NW5       30.16R
$$

NYZ177-179-078>081-230400-
LONG ISLAND NEW YORK

CITY           SKY/WX    TMP DP  RH WIND       PRES   REMARKS
FARMINGDALE    PTCLDY    57  39  51 NW8       30.15R
ISLIP          PTCLDY    56  41  57 N10       30.13R
SHIRLEY        PTCLDY    55  41  59 N10       30.14R
WESTHAMPTON    CLEAR     56  40  55 NW12      30.14R
MONTAUK POINT    N/A     58  42  55 NW17G26   30.14R
$$

NYZ052-065-067-230400-
HUDSON VALLEY

CITY           SKY/WX    TMP DP  RH WIND       PRES   REMARKS
WHITE PLAINS   CLEAR     52  38  58 NW9       30.14R
NEWBURGH       CLEAR     52  39  62 MISG      30.16R
MONTGOMERY     CLEAR     46  38  73 CALM      30.15R
POUGHKEEPSIE   CLEAR     49  41  74 CALM      30.14R
ALBANY         PTCLDY    50  41  71 NW3       30.15R
$$

NJZ001-105-106-008-010-013-015-019>022-104-230400-
NEW JERSEY

CITY           SKY/WX    TMP DP  RH WIND       PRES   REMARKS
NEWARK/LIBERTY PTCLDY    58  39  49 NW8       30.17R
TETERBORO      CLEAR     56  38  50 NW5       30.16R
CALDWELL       CLEAR     54  38  54 NW5       30.18R
MORRISTOWN     CLEAR     48  41  76 CALM      30.18R
SOMERVILLE     CLEAR     50  42  74 NW3       30.17R
LINDEN         FAIR      60  44  55 N5        30.19R
SUSSEX         CLEAR     49  40  71 CALM      30.18R
ANDOVER          N/A     47  40  76 CALM      30.19R
TRENTON        PTCLDY    53  41  63 N6        30.18R
MILLVILLE      PTCLDY    58  44  60 NW7       30.19R
ATLANTIC CITY  PTCLDY    53  49  86 NW5       30.17R
WRIGHTSTOWN    PTCLDY    52  44  74 N5        30.16R
TOMS RIVER     PTCLDY    54  43  66 CALM      30.18R
BELMAR         PTCLDY    55  39  54 NW7       30.17R
$$

PAZ047>061-062-071-230400-
EASTERN PENNSYLVANIA

CITY           SKY/WX    TMP DP  RH WIND       PRES   REMARKS
PHILADELPHIA   MOCLDY    60  41  49 NW12      30.20R
ALLENTOWN      CLEAR     51  39  63 VRB3      30.20R
SCRANTON       CLEAR     51  37  58 NW5       30.20R
$$

CTZ002-004>006-009-010-012-RIZ004-006-007-MAZ004-011-015-230400-
SOUTHERN NEW ENGLAND
 IN CT

CITY           SKY/WX    TMP DP  RH WIND       PRES   REMARKS
BRADLEY INTL   CLEAR     52  38  58 NW7       30.11R
HARTFORD       CLEAR     54  37  52 W6        30.13R
DANBURY        CLEAR     45  40  82 SW6       30.16R
WTRBRY/OXFORD  CLEAR     48  36  61 NW6       30.15R
BRIDGEPORT     PTCLDY    54  41  61 NW8       30.14R
MERIDEN        CLEAR     47  40  76 CALM      30.13R
NEW HAVEN      CLEAR     56  40  55 NW10      30.14R
CHESTER        FAIR      52  39  62 NW7       30.13R
GROTON         PTCLDY    53  40  61 NW14      30.10R
WILLIMANTIC    CLEAR     51  39  63 SW3       30.11R

 IN RI

CITY           SKY/WX    TMP DP  RH WIND       PRES   REMARKS
PROVIDENCE     PTCLDY    52  39  61 NW7       30.10R
BLOCK ISLAND   CLEAR     55  39  54 NW16G23   30.10R
WESTERLY       PTCLDY    54  39  57 NW9       30.10R

 IN MA

CITY           SKY/WX    TMP DP  RH WIND       PRES   REMARKS
BOSTON         CLEAR     55  38  52 W10       30.08R
WORCESTER      CLEAR     47  38  71 W9        30.08R
WESTFIELD      CLEAR     51  38  60 N7        30.11R
PROVINCETOWN   CLEAR     57  43  58 NW21G30   30.05R
NANTUCKET      CLEAR     60  43  53 NW14G23   30.05R
$$

ANZ330-335-338-340-345-350-353-355-230400-
COASTAL MARINE OBSERVATIONS


STATION/POSITION TIME  SKY/WX   TEMP    WIND        PRES    VSBY  WAVE
                                AIR SEA DIR/SP/G                  HT/PER
                 (UTC)          (F)     (DEG/KT/KT) (MB)    (MI)  (FT/S)
NY HARB ENTRANCE 0300            61 69  320/ 21/ 25 1020.6          4/10
4S FIRE IS       0300               69                N/A           4/10
20S FIRE ISLAND  0300            61 68  330/ 21/ 27 1020.2          5/ 5
23SW MTP         0300                                 N/A           6/10
HUDSON CANYON    0300            65 70  320/ 19/ 25 1019.1          6/ 9
EXECUTION ROCKS  0300            59 70  310/ 14/ 19   N/A
WESTERN LI SOUND 0300            59     320/ 12/ 17   N/A           1/ 2
CENTRAL LI SOUND 0200            58 69  330/ 19/ 25   N/A           3/ 5
EASTERN LI SOUND 0200            58 67  330/ 16/ 21   N/A
ROBBINS REEF     0300            58     330/ 13/ 18 1020.2
$$


>>>>>>>>>>>>>>>>>>>>>>>>>>>> KEY <<<<<<<<<<<<<<<<<<<<<<<<<<<
>                                                          <
>     SKY/WX - SKY CONDITION/PRESENT WEATHER               <
>     TMP    - TEMPERATURE IN FAHRENHEIT                   <
>     DP     - DEWPOINT IN FAHRENHEIT                      <
>     RH     - RELATIVE HUMIDITY IN PERCENT                <
>     WIND   - DIRECTION AND SPEED IN MPH                  <
>     PRES   - MEAN SEA LEVEL PRESSURE IN INCHES OF HG     <
>     WCI    - WIND CHILL INDEX                            <
>     VSB    - VISIBILITY IN MILES                         <
>     HX     - HEAT INDEX                                  <
>     TC     - TEMPERATURE IN CELSIUS                      <
>     VRB    - VARIABLE WIND DIRECTION                     <
>                                                          <
>>>>>>>>>>>>>>>>>>>>>>>>>>>> KEY <<<<<<<<<<<<<<<<<<<<<<<<<<<




USA.gov is the U.S. government's official web portal to all federal, state and local government web resources and services.